Regional Weather Roundup
Issued by NWS

Home | Current Version | Previous Version | Text Only | Print | Product List | Glossary Off
Versions: 1 2 3 4 5 6 7 8 9 10 11 12 13 14 15 16 17 18 19 20 21 22 23 24 25 26 27 28 29 30 31 32 33 34 35 36 37 38 39 40 41 42 43 44 45 46 47 48 49 50

000
ASUS43 KDMX 200007
RWRIA

WEATHER ROUNDUP FOR IOWA
NATIONAL WEATHER SERVICE DES MOINES IA
700 PM CDT TUE AUG 19 2014

NOTE: "FAIR" INDICATES FEW OR NO CLOUDS BELOW 12,000 FEET WITH NO
SIGNIFICANT WEATHER AND/OR OBSTRUCTIONS TO VISIBILITY.

* - THESE STATIONS ARE NOT NWS STATIONS...THUS NOT UNDER NWS
QUALITY CONTROL.  THEY ALSO DO NOT REPORT WEATHER SUCH
AS PRECIPITATION OR FOG.

IAZ001>003-012>014-020>022-031>034-043>046-200100-
   NORTHWEST IOWA

CITY           SKY/WX    TMP DP  RH WIND       PRES   REMARKS
CARROLL *      SUNNY     79  70  73 CALM      29.81R HX  81
CHEROKEE *     SUNNY     80  66  62 CALM      29.80S HX  81
DENISON *      SUNNY     81  64  57 CALM      29.80R HX  82
LE MARS *      SUNNY     81  64  57 CALM      29.79F HX  82
ORANGE CITY *  SUNNY     81  61  50 CALM      29.80F HX  81
SHELDON *      SUNNY     77  70  78 SW3       29.79S
SIOUX CITY     SUNNY     83  67  58 CALM      29.78S HX  85
6HR MIN TEMP:  83; 6HR MAX TEMP:  87;

SPENCER        SUNNY     79  68  69 W5        29.79F HX  81
6HR MIN TEMP:  79; 6HR MAX TEMP:  83;

STORM LAKE *   SUNNY     79  70  73 CALM      29.82R HX  81
$$

IAZ055>058-069>071-079>083-090>094-200100-
   SOUTHWEST IOWA

CITY           SKY/WX    TMP DP  RH WIND       PRES   REMARKS
ATLANTIC *     SUNNY     82  68  61 CALM      29.80S HX  85
AUDUBON *      SUNNY     82  72  69 CALM      29.83R HX  87
CLARINDA *     SUNNY     84  72  65 CALM      29.81F HX  89
COUNCIL BLFS * SUNNY     82  68  61 E3        29.79F HX  85
CRESTON *      SUNNY     81  68  65 CALM      29.82F HX  83
HARLAN  *      SUNNY     81  68  65 CALM      29.84S HX  83
LAMONI         SUNNY     84  69  60 CALM      29.81S HX  88
6HR MIN TEMP:  82; 6HR MAX TEMP:  86;

RED OAK *      SUNNY     84  68  58 CALM      29.80F HX  87
SHENANDOAH *   SUNNY     84  73  70 SE5       29.79F HX  91
$$

IAZ047>049-059>061-072>074-084-200100-
   CENTRAL IOWA

CITY           SKY/WX    TMP DP  RH WIND       PRES   REMARKS
AMES           SUNNY     80  63  55 NW6       29.78F HX  81
6HR MIN TEMP:  80; 6HR MAX TEMP:  84;

ANKENY *       SUNNY     82  66  57 W5        29.78S HX  85
CHARITON *     SUNNY     81  70  69 CALM      29.80S HX  84
DES MOINES     MOSUNNY   84  64  50 W5        29.78S HX  85
6HR MIN TEMP:  83; 6HR MAX TEMP:  87;

GRINNELL*      SUNNY     79  66  65 CALM      29.80F HX  81
KNOXVILLE *    SUNNY     81  66  61 CALM      29.78S HX  83
MARSHALLTOWN   SUNNY     79  67  66 W5        29.78S HX  81
6HR MIN TEMP:  79; 6HR MAX TEMP:  84;

PELLA *        SUNNY     82  67  61 CALM      29.80S HX  84
PERRY *          N/A     81  66  61 CALM      29.80R HX  83
$$

IAZ004>006-015-016-023>025-035-036-200100-
   NORTH CENTRAL IOWA

CITY           SKY/WX    TMP DP  RH WIND       PRES   REMARKS
ALGONA *       SUNNY     81  66  61 W7        29.79S HX  83
CLARION *      SUNNY     81  68  65 W5        29.79S HX  83
ESTHERVILLE    SUNNY     79  66  64 W6        29.78S HX  81
6HR MIN TEMP:  78; 6HR MAX TEMP:  81;

FORT DODGE *   SUNNY     79  64  61 W5        29.80S HX  81
MASON CITY     CLOUDY    77  67  71 E3        29.79S
6HR MIN TEMP:  77; 6HR MAX TEMP:  84; 6HR PCP: TRACE;

FOREST CITY *  MOSUNNY   81  64  57 W5        29.78S HX  82
IOWA FALLS *     N/A     80  64  57 W5        29.79F HX  81
$$

IAZ007>011-017>019-026>030-037>042-050>054-066-200100-
   NORTHEAST IOWA

CITY           SKY/WX    TMP DP  RH WIND       PRES   REMARKS
CEDAR RAPIDS   SUNNY     80  66  62 W7        29.77S HX  82
6HR MIN TEMP:  80; 6HR MAX TEMP:  85;

CHARLES CITY * SUNNY     77  66  69 W3        29.78F
CLINTON *      PTCLDY    79  64  61 NW6       29.79R HX  81
DECORAH *      SUNNY     75  63  64 CALM      29.76S
DUBUQUE        CLEAR     77  61  57 W9        29.77S
6HR MIN TEMP:  77; 6HR MAX TEMP:  84;

MONTICELLO *   CLEAR     79  63  57 NW8G14    29.76S HX  80
OELWEIN *      SUNNY     77  64  65 NW6       29.78F
WATERLOO       SUNNY     80  63  55 NW6       29.76F HX  81
6HR MIN TEMP:  79; 6HR MAX TEMP:  83;

$$

IAZ064-065-067-068-078-200100-
   EAST CENTRAL IOWA

CITY           SKY/WX    TMP DP  RH WIND       PRES   REMARKS
DAVENPORT      CLEAR     80  64  58 W9        29.77R HX  82
6HR MIN TEMP:  80; 6HR MAX TEMP:  85;

IOWA CITY      SUNNY     82  65  56 W8        29.78S HX  84
6HR MIN TEMP:  81; 6HR MAX TEMP:  86;

MT. PLEASANT * CLEAR     83  61  46 NW6       29.78R HX  83
MUSCATINE *    CLEAR     82  64  54 NW7       29.77R HX  84
QUAD CITIES    CLEAR     83  63  50 W8        29.75R HX  84
6HR MIN TEMP:  82; 6HR MAX TEMP:  89;

$$

IAZ062-063-075>077-085>089-095>099-200100-
   SOUTHEAST IOWA

CITY           SKY/WX    TMP DP  RH WIND       PRES   REMARKS
BURLINGTON     CLEAR     81  66  60 NW5       29.77S HX  83
6HR MIN TEMP:  81; 6HR MAX TEMP:  85; 6HR PCP: TRACE;

FAIRFIELD *    SUNNY     81  66  61 NW6       29.78S HX  83
FORT MADISON * CLEAR     82  72  69 CALM      29.78S HX  87
KEOKUK *       CLEAR     82  75  78 W5        29.77S HX  89
OSKALOOSA *      N/A     79  69  70 NW3       29.79S HX  82
CENTERVILLE *  SUNNY     81  73  78 NW3       29.81S HX  85
OTTUMWA        SUNNY     81  67  62 NW5       29.78S HX  83
6HR MIN TEMP:  81; 6HR MAX TEMP:  85;

WASHINGTON *   SUNNY     81  68  65 NW5       29.78S HX  83
$$

ABBREVIATIONS USED IN REMARKS
   TC - TEMPERATURES IN CELSIUS
  WCI - WIND CHILL INDEX
   HX - HEAT INDEX
  VSB - VISIBILITY
$$



USA.gov is the U.S. government's official web portal to all federal, state and local government web resources and services.